Voltar ao catálogo

DELTA 1 DEB

AtivoPO
NORAD 21469·DEBRIS·🇺🇸 United States

Lançado Jun 12, 1975 de Vandenberg Space Force Base

Loading…

Próximas Passagens (próximas 24 horas)

TLE

AtualizadoSource: Space-Track

Época: Sep 14, 2026, 03:51 UTC

1 21469U 75052FD  26257.16057626  .00000281  00000-0  11204-2 0  9997
2 21469  99.6720 135.3840 0364546 125.1019  25.8649 12.75242059642551

Acompanhe DELTA 1 DEB em tempo real com AllMySat

Download on the App Store